#timestamp,LO_Frequency,Hit,StdDev 
1505440815.0,286682708.3,Y,0.0
1505440815.9,286047002.8,P,0.7
1505440835.8,286047001.0,N,0.8
1505440855.6,286047000.6,N,0.8
1505440875.4,286047000.8,N,0.8
1505440895.3,286047000.8,N,0.7
1505440915.1,286047000.7,N,0.7
1505440935.9,286047001.1,N,0.7
1505440955.7,286047000.3,N,0.7
1505440975.5,286047000.5,N,0.7
1505440995.4,286047000.7,N,0.6
1505441015.2,286047000.3,N,0.6
1505441035.1,286047000.4,N,0.6
1505441036.0,286047000.4,N,0.6
1505441055.8,286047000.5,N,0.6
1505441075.6,286047001.1,N,0.6
1505441095.5,286047000.5,N,0.6
1505441115.3,286046998.7,N,0.7
1505441135.1,286047001.0,N,0.7
1505441155.9,286047000.4,N,0.7
1505441175.7,286047000.7,N,0.7
1505441195.6,286046999.9,N,0.7
1505441215.4,286047000.1,N,0.7
1505441235.2,286047002.4,Y,0.0
1505441255.1,286046999.9,P,0.4
1505441256.0,286046999.9,N,0.3
1505441275.8,286046998.6,P,0.7
1505441295.7,286046998.2,N,0.9
1505441315.5,286047001.2,N,1.1
1505441335.3,286046998.5,N,1.1
1505441355.2,286046998.6,N,1.0
1505441375.0,286046998.2,N,1.1
1505441375.9,286046998.2,N,1.1
1505441395.8,286046998.5,N,1.0
1505441415.6,286046998.4,N,1.0
1505441435.4,286046998.8,N,1.0
1505441455.3,286046998.6,N,0.9
1505441475.1,286046998.8,N,0.9
1505441495.8,286046998.3,N,0.9
1505441515.7,286046999.2,N,0.9
1505441535.5,286046998.5,N,0.9
1505441555.4,286046999.3,N,0.8
1505441575.2,286046996.6,Y,0.0
1505441595.0,286047000.9,P,1.0
1505441595.9,286047000.9,N,0.9
1505441615.8,286047000.6,N,0.8
1505441635.6,286047000.2,N,0.7
1505441655.5,286047000.0,N,0.7
1505441675.3,286047000.3,N,0.6
1505441695.1,286047000.4,N,0.6
1505441715.9,286047000.9,N,0.6
1505441735.7,286047000.4,N,0.6
1505441755.5,286047000.6,N,0.5
1505441775.4,286047000.0,N,0.5
1505441795.2,286047002.7,Y,0.0
1505441815.1,286047000.0,P,0.2
1505441816.0,286047000.0,N,0.2
1505441835.8,286047000.0,N,0.2
1505441855.6,286047001.9,Y,0.0
1505441875.5,286047002.7,P,1.3
1505441895.3,286047002.2,N,1.1
1505441915.2,286047001.3,N,1.0
1505441935.9,286047002.6,N,1.0
1505441955.7,286046999.7,N,1.2
1505441975.6,286046999.7,N,1.3
1505441995.4,286047002.3,N,1.2
1505442015.3,286047000.1,N,1.2
1505442035.1,286047002.4,N,1.2
1505442036.0,286047002.4,N,1.2
1505442055.8,286047002.6,N,1.2
1505442075.7,286047001.8,N,1.1
1505442095.5,286047002.5,N,1.1
1505442115.3,286047001.7,N,1.1
1505442135.2,286047001.7,N,1.1
1505442155.0,286047004.1,Y,0.0
1505442155.9,286047004.1,P,1.2
1505442175.8,286047000.5,N,1.5
1505442195.6,286047001.0,N,1.4
1505442215.4,286047000.5,N,1.3
1505442235.3,286047000.9,N,1.2
1505442255.1,286047000.3,N,1.2
1505442275.9,286046999.9,N,1.2
1505442295.7,286047000.9,N,1.2
1505442315.5,286047000.6,N,1.1
1505442335.4,286047000.9,N,1.1
1505442355.2,286047000.7,N,1.0
1505442375.0,286047000.6,N,1.0
1505442375.9,286047000.6,N,1.0
1505442395.8,286047000.6,N,0.9
1505442415.6,286047000.6,N,0.9
1505442435.5,286047000.9,N,0.9
1505442455.3,286047000.3,N,0.9
1505442475.1,286046999.7,N,0.9
1505442495.9,286047000.2,N,0.9
1505442515.7,286047000.2,N,0.9
1505442535.5,286046999.9,N,0.8
1505442555.4,286047000.1,N,0.8
1505442575.2,286047000.4,N,0.8
1505442595.1,286046999.8,N,0.8
1505442626.0,286047000.9,E,nan
1505442635.0,286047000.9,N,0.0
1505442635.9,286047000.9,P,0.0
1505442655.8,286047000.9,P,0.0
1505442675.6,286047000.7,Y,0.0
1505442695.4,286046998.9,P,1.0
1505442715.3,286046998.7,N,1.0
1505442735.1,286046999.1,N,0.9
1505442755.9,286046998.2,N,0.9
1505442775.7,286046998.3,N,0.9
1505442795.5,286046998.4,N,0.9
1505442815.4,286046998.7,N,0.8
1505442835.2,286047001.1,N,1.0
1505442855.0,286046998.3,N,1.0
1505442855.9,286046998.3,N,1.0
1505442875.8,286047000.7,N,1.1
1505442895.6,286046998.5,N,1.0
1505442915.5,286046999.2,N,1.0
1505442935.3,286046998.6,N,1.0
1505442955.1,286047000.7,N,1.0
1505442975.9,286047000.9,N,1.1
1505442995.7,286047000.7,N,1.1
1505443015.5,286047000.4,N,1.1
1505443035.4,286046998.1,N,1.1
1505443055.2,286047011.9,Y,0.0
1505443075.1,286046998.4,P,0.5
1505443076.0,286046998.4,P,0.4
1505443095.8,286046999.0,N,0.4
1505443115.7,286046998.7,Y,0.0
1505443135.5,286046998.1,P,0.3
1505443155.3,286046998.1,P,0.3
1505443175.2,286046999.9,N,0.7
1505443195.0,286047001.2,N,1.2
1505443225.9,286047001.0,E,nan
1505443235.9,286047000.4,N,0.0
1505443255.7,286046998.7,P,0.9
1505443275.5,286046998.6,N,0.8
1505443295.4,286047000.7,N,1.0
1505443315.2,286047001.1,N,1.0
1505443335.1,286046998.5,N,1.1
1505443336.0,286046998.5,N,1.1
1505443355.8,286046999.9,N,1.0
1505443375.6,286047000.5,N,1.0
1505443395.5,286047001.5,N,1.1
1505443415.3,286047002.3,N,1.3
1505443435.2,286047000.2,N,1.2
1505443455.9,286047000.5,N,1.2
1505443475.7,286047001.0,N,1.2
1505443495.6,286047000.0,N,1.1
1505443515.4,286047002.8,N,1.3
1505443535.2,286047000.9,N,1.2
1505443555.1,286047000.4,N,1.2
1505443556.0,286047000.4,N,1.2
1505443575.8,286047000.3,N,1.1
1505443595.7,286047000.0,N,1.1
1505443615.5,286047000.1,N,1.1
1505443635.3,286047002.8,N,1.2
1505443655.2,286047002.4,N,1.2
1505443675.0,286047000.2,N,1.2
1505443675.9,286047000.2,N,1.2
1505443695.8,286046999.7,N,1.2
1505443715.6,286047000.2,N,1.1
1505443735.4,286047000.3,N,1.1
1505443755.3,286047002.7,N,1.2
1505443775.1,286046999.7,N,1.2
1505443795.9,286046999.8,N,1.1
1505443815.7,286047000.0,N,1.1
1505443835.5,286047000.1,N,1.1
1505443855.4,286046999.8,N,1.1
1505443875.2,286046999.7,N,1.0
1505443895.0,286046999.8,N,1.0
1505443895.9,286046999.8,N,1.0
1505443915.8,286046999.7,N,1.0
1505443935.6,286046999.7,N,1.0
1505443955.5,286047002.3,N,1.0
1505443975.3,286047000.0,N,1.0
1505443995.1,286046999.9,N,1.0
1505444015.9,286047000.6,N,1.0
1505444035.7,286046998.2,N,1.1
1505444055.6,286046998.1,N,1.1
1505444075.4,286046998.3,N,1.1
1505444095.2,286047001.2,N,1.1
1505444115.1,286046998.2,N,1.2
1505444116.0,286046998.2,N,1.2
1505444135.8,286046998.6,N,1.3
1505444155.6,286047001.2,N,1.3
1505444175.5,286046998.1,N,1.2
1505444195.3,286046999.3,N,1.1
1505444215.2,286046998.1,N,1.2
1505444235.9,286046999.0,N,1.2
1505444255.7,286046997.3,N,1.2
1505444275.6,286046999.6,N,1.2
1505444295.4,286046998.0,N,1.3
1505444315.3,286046997.8,N,1.1
1505444335.1,286046998.0,N,1.2
1505444336.0,286046998.0,N,1.2
1505444355.8,286046997.7,N,1.2
1505444375.7,286046995.7,Y,0.0
1505444395.5,286046997.7,P,0.7
